Cloud_Cover
0 0 0 0 0 30 80 100 100 100 5 4 0 2 34 100 100 100 53 3 5 5 1 2 6 15 93 7 3 0 0 0 0 0 0 0 0 0 0 0 0 0 0 0 0 0 0 0 0
0 0 0 0 0 100 100 100 100 100 8 0 0 75 14 78 100 100 77 4 5 5 2 0 31 42 78 5 2 0 0 0 0 0 0 3 0 0 0 0 0 0 0 0 0 0 0 0 0
0 0 0 0 5 50 100 100 100 100 95 3 5 0 61 5 16 80 4 4 18 5 4 0 92 15 60 52 13 5 2 0 0 0 3 9 0 0 0 0 0 0 0 0 0 0 0 0 0
0 0 5 5 44 100 80 100 100 100 100 71 5 2 0 0 2 0 4 4 43 76 5 0 100 100 100 30 10 4 3 0 0 0 4 0 0 0 0 0 0 0 0 0 0 0 0 0 0
0 0 10 100 57 88 100 100 100 53 86 44 100 71 4 4 11 0 4 4 0 3 6 5 100 38 15 5 26 10 38 2 0 8 12 0 0 0 0 0 0 0 0 0 0 0 0 0 0
0 0 1 99 99 72 100 100 100 100 100 100 4 83 4 0 5 3 5 7 5 1 0 0 1 73 16 0 0 3 5 3 3 0 1 0 0 1 4 0 0 0 0 0 0 0 0 0 0
1 0 0 3 20 96 100 76 76 100 100 100 98 6 58 8 0 6 18 7 5 5 5 3 3 2 0 1 5 5 2 0 1 0 0 0 0 0 0 0 0 0 0 0 0 0 0 0 0
25 0 0 3 48 94 85 48 6 20 100 100 65 0 0 32 99 16 1 0 0 0 0 0 0 2 5 0 5 5 5 2 5 5 2 4 5 5 0 20 72 40 2 0 0 0 0 0 0
100 28 0 0 3 100 90 62 3 2 5 100 100 25 46 1 0 0 1 5 0 5 0 0 0 2 5 44 52 21 72 100 99 67 4 100 92 20 29 89 22 0 0 0 0 0 0 0 0
100 100 25 0 2 99 19 40 27 1 0 0 0 0 0 99 74 7 0 0 0 0 3 0 0 4 0 1 0 41 98 84 100 100 75 23 100 100 100 53 5 5 0 0 0 0 0 0 0
100 100 93 10 8 80 76 1 97 57 1 0 0 0 0 0 2 0 0 0 0 0 0 0 0 0 0 9 0 0 0 0 0 0 0 0 5 6 0 3 62 21 0 1 2 0 0 0 0
100 100 48 97 45 36 4 5 100 100 100 97 100 100 100 0 0 0 0 0 0 0 0 0 0 0 3 0 0 0 20 0 0 0 0 0 0 0 2 70 61 93 99 19 0 0 0 0 0
100 100 100 18 11 14 3 1 96 100 100 77 100 100 100 100 0 0 0 0 0 0 0 0 2 5 5 0 6 20 49 36 9 1 1 0 0 40 7 0 5 0 1 2 4 0 2 1 0
100 100 100 100 97 6 81 3 1 100 100 100 100 100 100 100 0 0 0 0 0 0 0 0 0 0 0 2 26 21 76 100 41 42 17 5 4 3 0 1 5 4 5 43 13 5 5 5 5
57 100 100 100 100 97 5 0 0 85 100 100 100 80 6 6 0 4 3 3 0 0 0 0 0 0 0 0 0 5 17 11 5 5 5 5 5 5 5 5 5 5 5 5 10 98 95 96 77
0 100 100 100 100 100 100 100 20 31 90 100 98 31 28 23 0 5 1 8 5 5 5 5 20 47 96 75 5 18 7 22 10 10 5 0 5 5 33 81 5 5 5 4 5 25 85 66 99
0 49 100 100 100 100 100 100 100 8 82 30 38 32 24 76 100 96 100 100 100 100 96 57 53 35 72 100 24 96 89 100 98 100 88 5 5 5 5 20 14 8 5 41 8 79 41 6 4
97 84 100 100 100 100 100 94 100 100 99 100 100 89 11 9 91 100 100 100 100 99 100 100 100 98 71 100 93 93 100 100 90 37 33 12 4 4 5 32 5 5 5 5 5 39 100 100 25
100 99 100 100 100 100 100 99 100 91 92 100 100 100 100 60 63 100 100 100 100 63 66 9 33 86 32 72 100 100 100 98 91 16 5 9 95 62 46 99 16 41 37 18 15 78 78 100 76
100 97 100 100 100 100 100 100 100 100 100 100 71 47 21 100 100 100 95 88 25 57 100 54 100 88 58 62 78 100 100 100 99 65 25 100 93 79 54 4 8 36 40 12 41 68 6 99 89
5 29 100 100 100 100 100 100 100 100 100 100 64 100 100 100 100 100 94 51 74 100 100 100 94 100 98 97 91 74 100 58 59 5 18 5 5 5 5 5 0 0 0 2 30 25 21 59 86
28 92 33 5 38 82 100 96 100 100 69 90 100 100 100 100 100 100 100 40 79 88 100 100 100 100 100 100 100 99 82 81 60 5 5 5 5 5 5 1 0 0 0 0 0 1 5 20 64
5 94 10 34 77 47 78 19 75 100 100 13 35 7 92 95 98 96 100 80 36 97 100 100 100 100 100 100 100 94 64 94 97 5 1 6 44 12 5 5 5 0 0 0 0 0 2 41 95
100 56 42 24 18 2 3 4 1 20 22 5 76 77 35 88 3 5 14 63 84 100 100 100 100 100 100 100 100 100 95 100 100 8 5 5 3 2 0 0 0 0 2 1 0 3 1 0 0
100 100 92 65 100 18 95 96 8 100 100 83 91 96 10 5 0 0 1 86 100 100 100 100 100 100 100 100 100 98 99 97 5 4 5 5 5 3 0 0 0 0 0 1 1 1 0 2 5
99 100 100 72 47 21 68 98 95 100 100 100 100 100 100 100 72 74 100 100 100 95 71 56 100 100 100 62 69 10 0 4 2 3 0 0 0 0 0 0 0 0 0 2 5 5 5 14 8
92 100 100 100 100 89 3 3 32 81 90 87 100 100 100 100 96 3 99 99 100 100 100 2 52 82 28 36 43 3 3 4 5 4 1 0 2 0 1 3 1 3 5 4 5 5 5 5 18
100 100 100 100 100 63 80 98 99 77 95 4 14 100 100 100 64 56 100 96 92 62 81 40 90 68 25 23 5 6 5 5 3 2 2 3 4 20 22 5 5 5 5 5 18 45 43 63 37
47 95 100 35 20 76 89 95 100 100 99 100 100 100 100 100 100 80 80 99 87 86 5 76 92 100 56 39 92 28 83 95 98 85 48 44 29 20 12 5 5 24 5 18 34 78 85 99 95
92 71 30 41 5 9 99 48 91 100 100 100 100 100 100 100 100 97 73 69 99 87 68 98 100 100 45 42 60 62 96 98 100 100 100 99 97 88 6 45 54 82 94 100 100 100 100 100 100